User: anonymous   Login
Location: Unspecified
(0.0000°N, 0.0000°E)
Time: 00:51:08
(UTC+00:00)
Language:

Altair - Orbit

View from above orbital plane
View from above orbital plane
View from above satellite
View from above satellite

Ground track
Ground track

The orbit data is extracted from the following two-line orbital elements,

1    50U 60009B   19257.47029298 -.00000089  00000-0 -40310-4 0  9996
2    50  47.2303 260.9307 0114120 220.5626 138.6616 12.20109749636859
Epoch (UTC): 14 September 2019 11:17:13
Eccentricity: 0.0114120
inclination: 47.2303°
perigee height: 1501 km
apogee height: 1683 km
right ascension of ascending node: 260.9307°
argument of perigee: 220.5626°
revolutions per day: 12.20109749
mean anomaly at epoch: 138.6616°
orbit number at epoch: 63685

The dashed part of the orbit path shows where the satellite is in the earth's shadow,  

DLR